Regional Weather Roundup
Issued by NWS Goodland, KS

Home | Current Version | Previous Version | Text Only | Print | Product List | Glossary Off
Versions: 1 2 3 4 5 6 7 8 9 10 11 12 13 14 15 16 17 18 19 20 21 22 23 24 25 26 27 28 29 30 31 32 33 34 35 36 37 38 39 40 41 42 43 44 45 46 47 48 49 50

000
ASUS43 KGLD 240559
RWRGLD

GOODLAND FORECAST AREA HOURLY WEATHER ROUNDUP
NATIONAL WEATHER SERVICE GOODLAND KS
1200 AM MDT THU AUG 24 2017

...OFFICIAL OBSERVATIONS...

CITY           SKY/WX    TMP DP  RH WIND       PRES   REMARKS
GOODLAND KS    CLEAR     65  62  90 S10       30.05F
HILL CITY KS   PTCLDY    67  49  52 S7        30.05S
IMPERIAL NEB   CLEAR     71  60  68 S16G22    30.00F
MCCOOK NEB     CLEAR     69  49  48 S10G18    30.02R
AKRON CO       PTCLDY    71  49  45 W13       30.08R
BURLINGTON CO  CLEAR     68  61  78 S16       30.08F
LIMON CO       CLOUDY    60  52  74 SW3       30.16F
$$

...UNOFFICIAL OBSERVATIONS...

CITY           SKY/WX    TMP DP  RH WIND       PRES   REMARKS
LENORA KS        N/A     64  32  30 CALM        N/A
NORTON KS      CLEAR     64  43  45 S12       30.03S
TRENTON NEB      N/A     66  32  28 S5          N/A
KIT CARSON CO    N/A     65  59  82 CALM        N/A
YUMA CO        FAIR      64  37  36 S8        30.04F
$$




USA.gov is the U.S. government's official web portal to all federal, state and local government web resources and services.